Temperature
18 18 19 19 18 19 19 19 18 18 19 19 19 19 19 19 19 19 19 19 19 18 18 18 18 18 18 17 17 17 17 17 17 17 17 17 17 17 17 16 16 16 16
18 18 19 18 19 19 19 19 19 19 19 19 19 19 19 19 19 19 19 19 18 18 18 18 18 18 18 18 17 17 17 17 17 17 17 17 17 17 17 16 16 16 16
18 18 18 18 19 19 19 19 19 19 19 19 19 19 19 19 19 19 18 18 18 18 18 18 18 18 18 18 17 17 17 17 17 17 17 17 17 17 17 17 17 16 16
18 18 18 18 19 18 19 19 19 19 19 19 19 19 19 19 19 19 18 18 18 18 18 18 18 18 18 18 17 17 17 17 17 17 17 17 17 17 17 17 16 16 16
18 18 18 18 18 18 18 19 19 19 19 19 19 19 19 19 19 19 18 18 18 18 18 18 18 18 18 18 18 17 17 17 17 17 17 17 17 17 16 16 16 16 16
18 18 18 18 18 18 18 19 19 19 19 19 19 19 19 19 19 19 19 18 18 18 18 18 18 18 18 18 18 17 17 17 17 17 17 17 17 17 17 16 16 16 16
18 18 18 18 18 18 18 18 19 18 18 19 19 19 19 19 19 19 19 19 18 18 18 18 18 18 18 18 17 17 17 17 17 17 17 17 17 17 17 16 16 16 16
18 18 18 18 18 18 18 18 18 18 18 18 18 19 19 19 19 19 19 19 19 18 18 18 18 18 17 17 17 17 17 17 17 17 17 17 17 17 16 16 16 16 16
18 18 18 18 18 18 18 18 18 18 18 18 19 19 19 19 19 19 19 19 19 18 18 18 18 18 17 17 17 17 17 17 17 17 17 17 17 16 16 16 16 16 16
18 18 18 18 18 18 18 18 18 18 18 18 18 19 19 19 19 18 19 19 19 19 18 18 18 18 17 17 17 17 17 17 17 17 17 16 16 16 16 16 16 16 16
18 18 18 18 18 18 18 18 18 18 18 18 18 18 19 19 19 18 18 18 18 18 18 18 18 18 17 17 17 17 17 17 17 17 16 16 16 16 16 16 16 16 16
18 18 18 18 18 18 18 18 18 18 18 18 18 18 18 18 18 18 18 18 18 18 18 18 18 18 17 17 17 17 17 16 16 16 16 16 16 16 16 16 16 16 16
18 18 18 18 18 18 18 18 18 18 18 18 18 18 18 18 18 18 18 18 18 18 18 18 18 18 17 17 17 17 16 16 16 16 16 16 16 16 16 16 16 16 15
18 18 18 18 18 18 18 18 18 18 18 18 18 18 18 18 18 18 18 18 17 17 17 18 18 17 17 17 17 17 16 16 16 16 16 16 16 16 16 15 15 15 15
17 18 18 18 18 18 18 18 18 17 17 17 18 18 18 18 18 18 18 17 17 17 17 17 17 17 17 17 17 16 16 16 16 16 16 16 16 16 15 15 15 15 15
17 17 17 17 17 17 17 17 17 17 17 17 17 17 17 17 17 17 17 17 17 17 17 17 17 17 17 17 16 16 16 16 16 16 16 16 15 15 15 15 15 15 15
17 17 17 17 17 17 17 17 17 17 17 17 17 17 17 17 17 17 17 17 17 17 16 17 17 17 16 16 16 16 16 16 16 15 15 15 15 15 15 15 15 15 15
17 17 17 17 17 17 17 17 17 17 17 17 17 16 16 17 17 17 17 17 17 16 16 16 16 16 16 16 16 16 15 15 15 15 15 15 15 15 15 15 15 15 15
17 16 17 16 17 17 17 17 16 16 16 16 16 16 16 16 16 16 16 16 16 16 16 16 16 16 16 16 15 15 15 15 15 15 15 15 15 15 15 15 15 15 14
16 16 16 16 16 16 16 16 16 16 16 16 16 16 16 16 16 16 16 16 16 16 16 15 15 15 15 15 15 15 15 15 15 15 15 15 15 15 15 15 15 14 14
16 16 16 16 16 16 16 16 16 16 16 16 16 16 16 16 16 16 15 15 15 15 15 15 15 15 15 14 14 14 14 14 14 14 14 14 14 15 15 14 14 14 14
16 16 16 16 16 16 16 16 16 15 15 15 15 15 15 15 15 15 15 15 15 15 15 15 15 14 14 14 14 14 14 14 14 14 14 14 14 14 14 14 14 14 14
16 16 15 15 15 15 15 15 15 15 15 15 15 15 15 15 15 15 15 15 15 15 15 15 14 14 14 14 14 14 14 14 14 14 14 14 14 14 14 14 14 14 14
15 15 15 15 15 15 15 15 15 15 15 15 15 15 15 15 15 15 15 15 15 15 15 14 14 14 14 14 14 14 14 13 13 13 13 13 13 13 13 13 14 14 14
15 15 15 15 15 15 15 15 15 15 14 15 15 15 15 14 15 15 15 15 15 15 15 14 14 14 14 14 14 14 13 13 13 13 13 13 13 13 13 13 13 13 13
15 15 14 14 14 14 15 14 14 14 14 14 14 14 14 14 14 14 14 14 14 14 14 14 14 14 14 14 14 13 13 13 13 13 13 13 13 13 12 13 13 13 13
Wind_Speed
1 1 1 1 2 2 3 2 2 2 1 2 3 3 1 1 2 5 8 12 12 11 11 10 9 9 8 8 8 9 9 9 9 9 9 9 10 10 10 11 10 10 10
1 0 0 0 1 1 0 1 1 1 2 1 2 1 1 2 2 4 7 10 11 12 12 11 10 10 10 10 10 10 9 9 9 10 10 10 10 10 11 11 11 10 10
1 1 1 1 1 1 1 1 1 1 2 2 2 2 1 2 2 4 6 8 10 12 13 12 11 10 10 9 10 10 10 10 10 10 11 12 11 11 11 11 11 11 10
1 1 0 1 1 2 1 1 1 1 1 1 2 2 1 2 3 3 6 8 9 9 12 14 13 12 11 10 10 10 10 10 10 11 11 12 12 12 12 12 12 11 11
2 2 1 1 2 1 0 1 1 0 0 1 2 2 2 2 2 3 3 5 7 9 10 13 14 13 11 11 10 10 10 9 10 11 12 12 12 13 13 13 13 12 12
2 2 2 1 2 1 0 1 1 1 1 2 3 1 2 2 3 2 3 2 4 7 9 10 11 11 11 10 10 10 10 10 9 9 10 12 12 12 13 13 13 13 12
2 3 2 1 1 1 1 1 1 1 1 1 1 1 2 3 2 2 1 1 2 3 6 8 9 8 9 11 10 9 10 9 9 9 9 9 11 12 12 12 12 12 12
2 3 2 2 2 1 1 1 1 1 2 2 1 2 1 1 2 1 1 2 1 1 3 6 7 7 8 9 9 9 9 9 9 9 9 9 10 10 11 12 13 12 12
2 3 3 2 2 2 2 3 2 3 3 2 1 1 1 1 1 0 1 1 2 1 1 2 5 7 7 8 9 9 9 9 9 8 9 9 10 11 11 12 13 12 12
3 4 3 3 2 2 2 3 2 3 3 3 2 2 2 1 1 1 1 1 1 2 2 2 2 4 6 7 8 9 10 9 8 8 8 9 10 10 11 11 11 11 12
3 3 3 3 3 2 3 3 2 3 2 3 2 2 2 2 2 2 2 1 1 1 1 2 1 2 4 5 6 8 10 10 8 8 8 8 8 8 10 10 10 10 10
2 3 3 2 3 2 2 2 3 3 3 3 3 2 2 2 1 2 2 2 2 2 2 1 1 1 3 5 5 7 9 9 9 8 8 8 7 7 8 8 9 9 9
2 2 2 2 2 2 2 2 2 3 3 3 3 3 2 2 2 2 2 2 2 1 1 1 2 2 2 4 5 7 7 8 8 8 8 7 7 7 7 7 7 7 7
2 1 2 2 2 3 3 2 2 3 3 3 4 3 3 2 2 2 2 1 2 2 1 2 1 2 3 4 6 7 6 7 8 7 8 7 7 6 6 7 7 7 7
2 1 2 2 2 2 2 2 2 2 2 3 3 3 3 2 2 2 2 2 2 2 2 2 1 1 3 4 8 6 5 8 8 7 8 8 7 6 6 6 6 6 7
2 2 2 2 2 2 2 2 2 2 2 2 3 3 3 3 3 3 2 2 2 2 2 2 1 1 2 2 6 5 4 7 9 9 9 9 8 8 7 6 6 6 6
1 2 2 2 2 2 2 2 3 2 2 3 3 3 3 3 3 3 2 1 1 2 3 2 1 0 1 1 2 4 5 5 6 9 10 10 10 10 9 8 7 7 6
2 2 2 2 3 3 2 3 4 3 3 3 3 3 3 3 3 3 2 2 2 2 2 3 2 1 1 1 2 3 2 3 4 8 11 11 12 11 10 10 9 8 7
2 2 2 3 3 3 3 3 4 4 4 4 3 4 4 3 3 3 2 3 3 3 2 2 2 1 1 1 1 2 2 1 3 4 8 10 11 12 11 10 9 9 8
3 2 3 3 3 3 3 3 4 4 4 4 4 4 4 4 3 3 4 3 3 3 3 3 2 2 1 1 1 1 1 1 1 1 1 4 8 10 10 9 10 10 10
3 3 3 3 3 3 3 3 4 5 4 4 4 4 4 4 4 4 4 3 3 4 3 3 2 2 2 1 2 2 2 1 1 1 1 1 3 4 6 8 9 10 11
2 2 3 3 3 3 3 4 4 5 4 4 4 4 4 3 3 4 4 4 5 4 4 3 3 3 3 3 2 2 2 2 2 2 1 2 2 2 4 6 8 10 11
2 2 2 2 2 2 3 3 4 4 4 4 4 4 5 4 2 2 2 3 4 6 6 5 4 4 3 3 3 3 3 3 4 2 2 3 2 3 3 6 10 12 12
2 2 2 2 2 3 3 3 4 4 4 4 3 3 3 2 3 3 3 3 3 3 4 4 4 4 3 2 3 3 4 3 2 2 2 2 2 3 3 4 11 13 13
2 2 2 2 2 2 2 2 2 3 3 2 2 2 1 1 2 2 2 3 3 2 2 2 4 4 4 4 3 2 3 2 3 2 2 2 2 2 3 3 7 12 13
2 2 2 2 2 2 1 0 1 2 2 2 1 1 1 1 1 1 2 2 2 3 2 2 2 2 3 3 4 5 4 3 3 3 2 1 2 1 2 2 2 5 8
Wind_Direction
60 109 152 195 211 206 194 196 197 178 212 240 237 234 209 126 157 141 154 172 177 179 184 193 197 197 199 199 201 207 205 206 209 211 208 204 203 202 202 202 202 203 204
80 10 115 235 283 287 110 161 198 175 211 246 251 236 168 177 166 155 168 180 188 190 191 194 196 199 202 205 207 205 203 207 211 214 211 208 206 205 207 209 207 205 202
148 243 226 205 254 255 221 220 261 203 220 214 223 228 216 192 176 176 182 188 192 196 195 195 196 199 205 207 207 209 211 211 210 211 213 212 210 208 208 209 208 205 203
194 252 259 205 234 243 206 212 211 226 227 236 233 233 199 197 210 196 195 191 187 188 195 200 199 200 205 209 212 213 213 213 211 212 214 216 214 211 210 211 210 207 206
220 231 261 256 236 245 249 291 92 321 291 281 248 224 212 208 217 222 221 199 185 181 185 194 198 199 202 209 212 214 215 211 211 214 216 217 217 216 212 214 212 210 212
217 247 226 243 250 269 13 11 -0 318 294 277 280 272 256 230 205 205 226 206 187 183 182 182 186 200 204 204 210 215 215 213 214 218 220 219 217 215 213 213 213 213 215
223 256 280 264 252 250 251 292 292 277 275 264 295 292 269 248 215 190 205 191 198 189 174 167 174 185 193 206 210 213 212 212 213 215 217 220 218 217 213 213 215 214 214
222 239 259 259 244 232 231 243 256 272 271 233 241 266 279 297 288 224 171 180 180 186 173 179 176 179 188 181 195 206 206 209 215 217 218 219 215 214 215 216 216 216 216
219 260 256 262 264 240 227 227 222 236 257 269 240 242 256 247 295 287 227 145 154 176 184 185 190 186 185 170 176 196 203 210 215 216 217 218 217 217 219 220 219 217 219
225 232 240 246 259 264 263 249 219 240 251 258 258 252 258 291 254 286 271 195 194 194 201 233 210 172 182 170 166 176 190 202 209 216 219 221 222 220 219 221 219 220 221
236 235 230 235 243 245 263 282 279 261 261 268 268 268 274 270 247 233 263 278 283 242 204 219 223 176 174 173 166 171 181 191 198 213 220 222 221 218 216 219 221 222 222
233 239 242 240 240 244 250 266 269 268 272 286 286 280 273 265 259 240 248 256 266 267 248 213 206 195 179 177 174 161 177 188 194 203 209 213 215 216 216 220 219 220 217
251 236 257 258 254 263 249 249 264 272 264 266 273 279 281 273 269 263 249 263 270 276 272 241 206 176 179 147 151 160 175 186 189 193 198 206 212 219 221 218 213 209 210
251 240 242 242 251 262 263 252 245 255 259 260 266 269 270 275 270 261 246 267 286 274 266 262 224 159 156 136 145 162 176 181 186 191 196 203 207 211 214 213 212 209 209
260 260 232 237 246 259 270 272 265 263 268 263 263 265 267 268 273 268 245 224 232 264 271 251 277 165 149 146 157 167 166 181 189 197 200 200 202 203 204 208 211 211 211
283 282 278 266 255 247 252 268 269 271 277 284 266 263 267 267 273 268 259 246 217 227 256 270 246 181 144 146 155 168 175 180 193 198 202 201 199 197 196 200 203 203 205
265 258 271 279 274 262 255 261 269 263 264 276 281 273 263 264 274 283 275 263 246 228 233 268 267 38 117 132 161 180 191 182 191 198 201 202 201 198 196 197 199 198 198
261 256 253 260 266 268 260 257 264 267 259 264 268 271 266 260 262 264 269 252 241 235 210 243 264 241 235 167 200 203 204 197 183 195 201 202 202 201 200 198 197 197 195
259 264 267 265 267 272 269 270 272 274 271 267 264 257 263 262 260 260 253 247 250 249 225 229 250 244 229 213 202 215 212 208 220 201 199 203 203 202 201 199 198 197 195
239 255 261 266 269 271 273 280 284 274 271 273 272 264 262 258 254 252 243 234 243 245 233 228 235 222 206 215 190 221 226 220 235 209 199 194 198 201 198 197 198 199 198
246 253 261 263 266 261 269 286 285 277 279 279 278 276 264 258 250 246 248 231 236 237 236 231 237 236 227 211 229 234 237 252 244 195 200 219 179 190 194 200 202 200 197
262 263 259 260 268 273 293 289 284 286 279 275 277 282 267 261 248 246 243 234 231 230 232 233 237 243 243 231 235 240 227 239 260 222 210 249 204 204 187 191 198 196 197
250 261 262 256 257 272 294 295 291 278 274 269 269 274 276 278 277 278 255 232 232 227 225 228 233 242 247 235 223 236 240 239 247 229 203 241 226 224 207 202 200 200 202
249 253 256 266 267 278 293 300 297 268 264 266 272 270 277 303 295 309 274 256 251 254 245 231 232 242 242 222 209 223 231 252 261 231 194 238 235 237 237 202 203 204 206
252 248 245 260 270 279 287 290 288 272 264 268 261 275 265 261 321 323 286 267 270 275 287 253 237 234 233 229 218 225 236 242 269 265 234 227 240 246 241 229 206 207 209
234 243 249 250 258 262 220 242 276 264 272 274 254 232 254 278 302 313 298 272 264 268 280 282 254 230 227 223 216 219 231 237 255 259 240 223 231 258 265 246 219 200 208
Height
1534 1535 1536 1536 1537 1537 1537 1538 1538 1539 1539 1540 1540 1541 1541 1541 1542 1542 1542 1542 1543 1543 1543 1543 1543 1544 1544 1544 1545 1545 1546 1547 1548 1549 1550 1552 1553 1554 1555 1556 1558 1559 1560
1534 1535 1536 1536 1537 1537 1537 1538 1538 1538 1539 1539 1539 1540 1540 1541 1541 1541 1541 1541 1541 1541 1542 1542 1542 1542 1542 1542 1543 1544 1545 1546 1547 1548 1548 1550 1551 1552 1553 1554 1556 1557 1558
1534 1535 1536 1536 1536 1537 1537 1538 1538 1538 1538 1539 1539 1540 1540 1540 1539 1539 1539 1539 1539 1539 1540 1540 1541 1541 1541 1541 1542 1542 1543 1544 1545 1545 1546 1547 1549 1550 1551 1552 1553 1555 1556
1534 1535 1535 1536 1536 1537 1537 1537 1537 1538 1538 1538 1539 1539 1539 1539 1538 1538 1537 1536 1537 1538 1538 1539 1539 1539 1540 1540 1540 1541 1541 1542 1542 1543 1544 1545 1546 1547 1548 1550 1551 1552 1553
1534 1535 1535 1535 1536 1536 1536 1537 1537 1537 1537 1538 1538 1538 1538 1537 1537 1536 1536 1535 1535 1536 1537 1537 1538 1538 1538 1539 1539 1539 1539 1540 1540 1541 1542 1543 1543 1544 1546 1547 1548 1550 1551
1533 1534 1534 1535 1535 1535 1536 1536 1536 1536 1536 1536 1537 1537 1537 1536 1536 1535 1535 1534 1535 1535 1535 1536 1536 1536 1537 1537 1537 1537 1538 1537 1538 1538 1539 1539 1540 1541 1543 1544 1545 1547 1548
1532 1533 1533 1534 1534 1534 1535 1535 1535 1535 1535 1535 1536 1536 1536 1535 1535 1534 1534 1533 1533 1534 1534 1534 1533 1534 1534 1535 1536 1536 1536 1535 1535 1536 1536 1536 1537 1538 1540 1541 1542 1544 1545
1531 1532 1532 1532 1532 1533 1533 1533 1534 1534 1534 1535 1535 1534 1534 1535 1534 1533 1533 1533 1532 1532 1533 1533 1533 1532 1532 1533 1534 1534 1533 1533 1533 1533 1533 1533 1534 1535 1536 1538 1539 1540 1541
1530 1530 1530 1531 1531 1531 1532 1532 1532 1533 1533 1534 1534 1534 1534 1533 1532 1532 1532 1532 1532 1532 1532 1532 1532 1532 1532 1531 1531 1531 1531 1531 1531 1531 1530 1531 1531 1532 1533 1535 1536 1537 1538
1528 1528 1529 1529 1529 1530 1530 1531 1531 1531 1532 1532 1532 1532 1532 1532 1532 1531 1531 1531 1530 1530 1530 1531 1531 1531 1530 1530 1529 1529 1529 1528 1528 1528 1528 1528 1529 1529 1530 1531 1532 1534 1535
1527 1527 1527 1527 1528 1528 1528 1529 1529 1529 1530 1530 1530 1530 1530 1530 1530 1530 1530 1530 1529 1529 1529 1529 1529 1529 1528 1528 1527 1527 1526 1526 1526 1525 1525 1526 1526 1527 1527 1528 1529 1530 1532
1525 1525 1525 1525 1526 1526 1526 1526 1527 1527 1528 1528 1528 1529 1529 1529 1529 1529 1528 1528 1528 1528 1527 1527 1527 1526 1526 1525 1525 1524 1524 1524 1523 1523 1523 1523 1524 1524 1525 1526 1526 1528 1529
1523 1522 1523 1523 1523 1523 1524 1524 1524 1525 1525 1525 1526 1526 1526 1527 1527 1527 1527 1526 1526 1526 1525 1525 1525 1524 1524 1523 1523 1522 1521 1521 1521 1520 1521 1521 1521 1522 1523 1523 1524 1525 1526
1520 1520 1520 1520 1521 1521 1521 1521 1522 1522 1523 1523 1523 1523 1524 1524 1524 1524 1524 1524 1524 1524 1523 1523 1523 1522 1522 1521 1521 1520 1520 1519 1519 1518 1519 1519 1520 1520 1521 1521 1522 1523 1524
1518 1518 1517 1517 1518 1519 1519 1519 1519 1519 1520 1520 1520 1521 1521 1521 1521 1521 1522 1522 1522 1521 1521 1521 1521 1520 1520 1520 1519 1519 1518 1518 1517 1517 1517 1517 1518 1518 1519 1519 1520 1521 1522
1515 1515 1515 1515 1516 1516 1516 1516 1516 1517 1517 1517 1517 1517 1517 1518 1518 1518 1518 1519 1519 1519 1519 1519 1519 1519 1518 1518 1517 1517 1516 1516 1515 1515 1515 1516 1516 1516 1517 1518 1518 1519 1520
1512 1512 1512 1513 1513 1513 1513 1513 1513 1513 1514 1514 1514 1514 1514 1514 1515 1515 1515 1515 1515 1516 1515 1516 1516 1517 1516 1516 1516 1515 1514 1514 1513 1513 1513 1514 1514 1514 1515 1515 1516 1517 1517
1509 1509 1509 1509 1510 1510 1510 1510 1510 1510 1510 1510 1510 1511 1510 1511 1511 1511 1512 1512 1512 1513 1513 1513 1513 1514 1514 1514 1514 1513 1513 1512 1512 1511 1511 1511 1512 1512 1513 1513 1514 1514 1515
1506 1506 1506 1506 1507 1507 1507 1507 1507 1507 1507 1507 1507 1506 1506 1507 1507 1508 1508 1508 1509 1509 1510 1510 1510 1511 1511 1511 1511 1511 1511 1510 1510 1510 1509 1509 1509 1510 1510 1511 1511 1512 1512
1503 1503 1503 1503 1503 1504 1504 1503 1503 1503 1503 1503 1503 1503 1503 1503 1504 1504 1505 1505 1505 1506 1506 1507 1508 1508 1508 1508 1508 1508 1508 1508 1508 1508 1507 1507 1507 1507 1507 1508 1508 1509 1509
1500 1500 1500 1500 1500 1500 1500 1500 1499 1499 1499 1499 1499 1499 1500 1500 1500 1501 1501 1501 1502 1502 1503 1504 1504 1505 1505 1505 1505 1505 1505 1505 1505 1505 1504 1504 1504 1504 1504 1505 1505 1506 1506
1497 1497 1497 1496 1496 1496 1496 1496 1496 1496 1496 1496 1495 1495 1496 1497 1497 1497 1497 1498 1498 1499 1500 1500 1501 1501 1501 1501 1502 1502 1502 1502 1501 1502 1502 1501 1501 1501 1501 1501 1502 1503 1503
1494 1494 1494 1493 1493 1493 1493 1493 1493 1492 1492 1492 1492 1492 1493 1493 1493 1493 1493 1494 1495 1496 1497 1497 1498 1497 1498 1498 1499 1499 1499 1499 1498 1498 1499 1498 1498 1498 1498 1498 1499 1499 1500
1491 1491 1491 1491 1490 1490 1490 1490 1489 1489 1489 1489 1489 1489 1489 1489 1490 1490 1490 1490 1491 1492 1493 1494 1494 1494 1495 1495 1495 1496 1496 1496 1496 1496 1496 1495 1495 1495 1495 1495 1495 1496 1496
1489 1489 1488 1488 1488 1487 1487 1487 1487 1487 1487 1486 1486 1486 1486 1486 1487 1487 1487 1487 1487 1488 1489 1490 1490 1491 1491 1492 1492 1493 1492 1492 1492 1492 1492 1492 1492 1492 1492 1491 1492 1492 1492
1486 1486 1486 1486 1486 1485 1485 1484 1485 1485 1485 1484 1484 1484 1484 1484 1484 1484 1484 1484 1483 1484 1485 1486 1487 1487 1488 1489 1489 1490 1489 1489 1489 1489 1489 1490 1489 1489 1488 1488 1488 1488 1489